Notices

What's New in latest Release from April 7th, 2021:

- Updated Glossary, including Speed of Maximum Gust, and Total Hourly Precipitation

- Updated national and regional climate services offices contacts and prices information

- Addition of station inventory lists for 1981-2010, 1971-2000, and 1961-1990 Normals.

If you haven't already, please take our survey and provide feedback about our website: https://eccc.sondage-survey.ca/f/LanguageSelection.aspx?s=442ca660-fcf1-47c0-95a9-59707d6fd709

Hourly Data Report for November 10, 2019

EUREKA CLIMATE
NUNAVUT
Current Station Operator: ECCC - MSC

79°59'21.000" N
85°56'02.000" W
10.00 m
2401199
71613
NEK

Download Data

Hourly Data (November 2019)
Hourly Data Report for November 10, 2019
TIME
LST
Temp Definition
°C
Dew Point Definition
°C
Rel Hum Definition
%
Precip. Amount Definition
mm

Wind Dir Definition
10's deg

Wind Spd Definition
km/h
Visibility Definition
km
Stn Press Definition
kPa
Hmdx Definition


Wind Chill Definition


Weather Definition


00:00 -34.6 -37.8 73 0.0 7 6   101.72   -42 LegendNANA
01:00 -34.5 -37.8 72 0.0 7 7   101.66   -43 LegendNANA
02:00 -34.4 -37.8 72 0.0 10 7   101.66   -42 LegendNANA
03:00 -35.6 -39.1 71 0.0 7 2   101.63   -38 LegendNANA
04:00 -35.4 -38.8 71 0.0 4 5   101.58   -42 LegendNANA
05:00 -35.3 -38.7 71 0.0 11 9   101.55   -45 LegendNANA
06:00 -35.3 -38.7 71 0.0 8 6   101.50   -43 LegendNANA
07:00 -35.1 -38.5 71 0.0 5 4   101.44   -40 LegendNANA
08:00 -34.6 -37.9 72 0.0 14 3   101.40   -38 LegendNANA
09:00 -35.8 -39.3 70 0.0 9 5   101.37   -42 LegendNANA
10:00 -35.6 -39.1 71 0.0 6 4   101.31   -41 LegendNANA
11:00 -35.8 -39.3 70 0.0 10 5   101.30   -42 LegendNANA
12:00 -36.3 -39.8 70 0.0 3 3   101.27   -40 LegendNANA
13:00 -36.0 -39.5 70 0.0 10 8   101.23   -45 LegendNANA
14:00 -36.3 -39.9 69 0.0 7 5   101.25   -43 LegendNANA
15:00 -35.3 -38.7 71 0.0 10 10   101.21   -45 LegendNANA
16:00 -35.2 -38.7 71 0.0 8 7   101.20   -43 LegendNANA
17:00 -35.5 -39.0 71 0.0 8 5   101.19   -42 LegendNANA
18:00 -35.3 -38.7 71 0.0 9 9   101.15   -45 LegendNANA
19:00 -35.2 -38.7 71 0.0 9 8   101.12   -44 LegendNANA
20:00 -35.2 -38.7 71 0.0 8 8   101.09   -44 LegendNANA
21:00 -35.6 -39.1 70 0.0 7 6   101.08   -43 LegendNANA
22:00 -35.9 -39.5 70 0.0 6 6   101.05   -43 LegendNANA
23:00 -35.3 -38.6 71 0.0 6 6   101.04   -43 LegendNANA

Notes on Data Quality.

Legend

  • E = Estimated
  • M = Missing
  • NA = Not Available*
  • [empty] = Indicates an unobserved value
Date modified: